Weather History for KHON - April, 2014

Change the Weather History Date:

Thursday, April 3, 2014

  Actual Average Record
Temperature  
Mean Temperature 34 °F 41 °F  
Max Temperature 36 °F 53 °F 81 °F (1910)
Min Temperature 32 °F 29 °F -2 °F (1975)
Degree Days  
Heating Degree Days 31 24  
Month to date heating degree days 107 73  
Since 1 July heating degree days 7528 6892  
Cooling Degree Days 0 0  
Month to date cooling degree days 0 0  
Year to date cooling degree days 0 0  
Moisture  
Dew Point 30 °F    
Average Humidity 89    
Maximum Humidity 96    
Minimum Humidity 82    
Precipitation  
Precipitation 0.00 in 0.06 in 1.80 in (1968)
Month to date precipitation T 0.19  
Year to date precipitation 1.03 2.75  
Snow  
Snow 0.00 in 0.20 in 7.50 in (1937)
Month to date snowfall T 0.6  
Since 1 July snowfall 26.4 40.5  
Snow Depth 0.00 in    
Sea Level Pressure  
Sea Level Pressure 29.95 in    
Wind  
Wind Speed 13 mph (NNE)    
Max Wind Speed 25 mph    
Max Gust Speed 30 mph    
Visibility 6 miles    
Events      
T = Trace of Precipitation, MM = Missing Value Source: NWS Daily Summary

Daily Weather History Graph

Daily Weather History Graph

Search for Another Location

Airport or City:

Trip Planner

Search our weather history database for the weather conditions in past years. The results will help you decide how hot, cold, wet, or windy it might be!

Date:

Astronomy

Apr. 03, 2014 Rise Set
Actual Time 7:10 AM CDT 8:02 PM CDT
Civil Twilight 6:40 AM CDT 8:32 PM CDT
Nautical Twilight 6:05 AM CDT 9:07 PM CDT
Astronomical Twilight 5:29 AM CDT 9:44 PM CDT
Moon 9:32 AM CDT (4/3) No Moon Set
Length of Visible Light 13h 51m
Length of Day
12h 52m
Waxing Crescent, 17% of the Moon is Illuminated
Apr 3
Waxing Crescent
Apr 7
First Quarter
Apr 15
Full
Apr 22
Last Quarter
Apr 29
New

Hourly Weather History & Observations

Time (CDT) Temp. Windchill Dew Point Humidity Pressure Visibility Wind Dir Wind Speed Gust Speed Precip Events Conditions
12:09 AM 33.1 °F 24.9 °F 30.0 °F 89% 29.97 in 5.0 mi East 10.4 mph - N/A   Overcast
12:19 AM 33.1 °F 25.5 °F 30.0 °F 89% 29.96 in 6.0 mi East 9.2 mph - N/A   Overcast
12:55 AM 33.1 °F 25.5 °F 30.0 °F 89% 30.00 in 6.0 mi East 9.2 mph - N/A   Overcast
1:52 AM 33.8 °F 27.7 °F 30.2 °F 87% 29.95 in 8.0 mi East 6.9 mph - N/A   Overcast
1:55 AM 33.1 °F 26.9 °F 30.0 °F 89% 29.99 in 8.0 mi East 6.9 mph - N/A   Overcast
2:20 AM 33.1 °F 27.7 °F 30.0 °F 89% 29.95 in 8.0 mi East 5.8 mph - N/A   Overcast
2:55 AM 33.1 °F 27.7 °F 30.0 °F 89% 29.97 in 8.0 mi East 5.8 mph - N/A   Overcast
3:55 AM 33.1 °F 30.0 °F 30.0 °F 89% 29.97 in 9.0 mi NE 3.5 mph - N/A   Overcast
4:53 AM 32.0 °F 25.6 °F 30.2 °F 93% 29.92 in 2.5 mi North 6.9 mph - N/A   Overcast
4:55 AM 32.0 °F 25.6 °F 30.0 °F 92% 29.95 in 2.5 mi North 6.9 mph - N/A   Overcast
5:55 AM 32.0 °F 25.6 °F 30.9 °F 96% 29.96 in 2.5 mi North 6.9 mph - N/A   Overcast
6:44 AM 32.0 °F 24.8 °F 30.0 °F 92% 29.91 in 2.5 mi North 8.1 mph - N/A   Overcast
6:55 AM 32.0 °F 25.6 °F 30.0 °F 92% 29.95 in 3.0 mi North 6.9 mph - N/A   Overcast
7:09 AM 32.0 °F 24.8 °F 30.9 °F 96% 29.91 in 3.0 mi North 8.1 mph - N/A   Overcast
7:40 AM 32.0 °F 24.2 °F 30.0 °F 92% 29.92 in 2.5 mi North 9.2 mph - N/A   Overcast
7:55 AM 32.0 °F 24.2 °F 30.0 °F 92% 29.96 in 2.0 mi North 9.2 mph - N/A   Overcast
8:55 AM 32.0 °F 24.2 °F 30.0 °F 92% 29.96 in 2.0 mi North 9.2 mph - N/A   Overcast
9:55 AM 33.1 °F 26.1 °F 30.9 °F 92% 29.96 in 2.5 mi North 8.1 mph - N/A   Overcast
10:16 AM 33.1 °F 25.5 °F 30.9 °F 92% 29.92 in 3.0 mi NNE 9.2 mph - N/A   Overcast
10:55 AM 33.1 °F 26.1 °F 30.9 °F 92% 29.97 in 4.0 mi NNE 8.1 mph - N/A   Overcast
11:55 AM 33.1 °F 25.5 °F 30.9 °F 92% 29.96 in 4.0 mi North 9.2 mph - N/A   Overcast
12:55 PM 34.0 °F 25.5 °F 32.0 °F 92% 29.95 in 4.0 mi North 11.5 mph - N/A   Overcast
1:55 PM 34.0 °F 25.0 °F 32.0 °F 92% 29.94 in 4.0 mi NNW 12.7 mph - N/A   Overcast
2:55 PM 34.0 °F 23.4 °F 32.0 °F 92% 29.93 in 7.0 mi NNW 17.3 mph - N/A   Overcast
3:55 PM 35.1 °F 24.8 °F 30.9 °F 85% 29.92 in 8.0 mi North 17.3 mph 24.2 mph N/A   Overcast
4:08 PM 35.1 °F 25.2 °F 30.9 °F 85% 29.89 in 9.0 mi North 16.1 mph - N/A   Overcast
4:55 PM 34.0 °F 22.4 °F 30.0 °F 85% 29.93 in 9.0 mi NNW 20.7 mph - N/A   Overcast
5:20 PM 34.0 °F 23.4 °F 30.9 °F 89% 29.89 in 8.0 mi North 17.3 mph - N/A   Overcast
5:55 PM 34.0 °F 24.6 °F 30.9 °F 89% 29.94 in 8.0 mi North 13.8 mph 26.5 mph N/A   Overcast
6:55 PM 34.0 °F 23.8 °F 30.0 °F 85% 29.96 in 9.0 mi North 16.1 mph 24.2 mph N/A   Overcast
7:15 PM 34.0 °F 25.5 °F 30.0 °F 85% 29.93 in 10.0 mi North 11.5 mph 21.9 mph N/A   Overcast
7:55 PM 33.1 °F 21.9 °F 30.0 °F 89% 29.97 in 10.0 mi North 18.4 mph - N/A   Overcast
8:55 PM 33.1 °F 21.5 °F 28.9 °F 85% 29.97 in 10.0 mi NNW 19.6 mph - N/A   Overcast
10:55 PM 32.0 °F 21.2 °F 28.0 °F 85% 29.99 in 10.0 mi NNW 16.1 mph - N/A   Overcast
11:55 PM 32.0 °F 20.5 °F 28.0 °F 85% 30.00 in 10.0 mi NNW 18.4 mph - N/A   Overcast